Orbital Elements at Epoch 2459000.5 (2020-May-31.0) TDB
Reference: JPL 16 (heliocentric ecliptic J2000)
Element | Value | Uncertainty (1-sigma) | Units |
e | .1896987342209178 | 5.8355e-08 | |
a | 2.264454229821785 | 7.2291e-09 | au |
q | 1.834890128723389 | 1.3135e-07 | au |
i | 7.058348188170316 | 4.6958e-06 | deg |
node | 96.49081081834612 | 4.9883e-05 | deg |
peri | 287.9130981949849 | 5.1085e-05 | deg |
M | 330.1163947980531 | 1.0462e-05 | deg |
tp | 2459103.817582755332 (2020-Sep-11.31758276) | 3.6259e-05 | TDB |
period | 1244.63998036945 3.41 | 5.9601e-06 1.632e-08 | d yr |
n | .2892402668064224 | 1.3851e-09 | deg/d |
Q | 2.694018330920181 | 8.6005e-09 | au |
|
| | Orbit Determination Parameters
Additional Information
|